Location: Bruderhein
(53.8035°N, 112.9265°W)
Time: 10:55:35
(UTC+00:00)

KKS-1 - Pass Details

Date: 07 April 2023
Orbit: 633 x 644 km, 98.2° (Epoch: 30 May)

Event Time Altitude Azimuth Distance (km) Brightness Sun altitude
Rises 06:44:54 0° 12° (NNE) 2,945 ? -28.6°
Reaches altitude 10° 06:47:07 10° 9° (N) 2,032 ? -28.6°
Enters shadow 06:50:35 48° 338° (NNW) 832 ? -28.7°
